sat.trackr.live / text

‹ back to catalog

STARLINK-34600

NORAD 64699 · 2025-142D

PAYLOAD ACTIVE UNKNOWN

§ Identity

Operator
Country
US
Launch date
2025-06-28
Launch site
AFWTR
Launch vehicle
Mass (kg)
RCS (m²)

Purposes: comms

External: N2YO · Heavens-Above · Gunter

§ Orbital elements

Epoch: 2026-09-20T11:42:51.166080Z

Period
94.14 min
Inclination
70.0043°
Eccentricity
0.0002145
Mean motion
15.29581691 rev/d
Perigee alt
475.6 km
Apogee alt
478.5 km
Semi-major
6,855.2 km
B*
6.3511e-4
RAAN
180.7264°
Arg perigee
287.3142°
Mean anomaly
72.7798°
Rev number
6,872

§ Raw data

STARLINK-346001 64699U 25142D   26263.48809220  .00018173  00000+0  63511-3 0  99982 64699  70.0043 180.7264 0002145 287.3142  72.7798 15.29581691 68727

JSON: /api/v1/satellites/64699 · /tle

For live sub-satellite position, see the globe view (requires WebGL).

§ Visibility from observer

Set your observer location to see the next 7 days of passes ≥ 10°. The values pass through the URL so the page stays shareable.

No JS? Fill the form by hand. The geolocation button needs JavaScript.